Location: *
(45.0500°N, 12.0500°E)
Time: 09:10:55
(UTC+00:00)

Cosmos 1741 Rocket - Pass Details

Date: 09 April 2020
Orbit: 762 x 782 km, 74.0° (Epoch: 01 June)

Event Time Altitude Azimuth Distance (km) Brightness Sun altitude
Exits shadow 19:41:00 31° 152° (SSE) 1,350 4.8 -18.8°
Maximum altitude 19:42:59 44° 104° (ESE) 1,071 4.3 -19.1°
Drops below altitude 10° 19:48:01 10° 33° (NNE) 2,345 6.5 -19.8°
Sets 19:50:30 0° 27° (NNE) 3,277 7.4 -20.2°
